{"data":{"norad_id":65856,"intl_designator":"2025-223C","name":"STARLINK-35459","alt_names":[],"object_type":"PAYLOAD","status":"ACTIVE","operator":null,"country":"US","launch_date":"2025-10-03","launch_site_code":"AFWTR","launch_vehicle":null,"mission":null,"orbit_class":"UNKNOWN","rcs_meters":null,"size_class":null,"mass_kg":null,"dimensions":null,"purposes":["comms"],"wikipedia_slug":null,"has_3d_model":false,"image_url":null,"decayed_at":null,"tle_current":{"epoch":"2026-09-20T22:23:20.858784Z","epoch_age_seconds":68762,"freshness":"FRESH","line1":"1 65856U 25223C   26263.93288031  .00012963  00000+0  39421-3 0  9999","line2":"2 65856  53.1526 103.3693 0001108 101.5208 258.5919 15.34393739 54157","mean_motion":15.34393739,"eccentricity":0.0001108,"inclination_deg":53.1526,"raan_deg":103.3693,"arg_perigee_deg":101.5208,"mean_anomaly_deg":258.5919,"bstar":0.00039421,"rev_number":5415,"period_min":93.848141021384,"perigee_km":461.96388212133,"apogee_km":463.47981644233,"semimajor_km":6840.8588492818,"source":"CELESTRAK","updated_at":"2026-09-21T09:00:35.725542Z"}}}